KB1EJH-13 Weather Reports


Display with metric or nautical units.
time (UTC)temp
F
wind
direction
speed
MPH
gust
MPH
rain 1hr
in
rain 24hr
in
rain mn
in
humidity
%
barometer
mb
20211209053250 35 18 2.0 5.0 0.00 0.00 0.00 80 1016.9
20211209052750 35 307 2.0 4.0 0.00 0.00 0.00 81 1016.9
20211209052250 35 300 2.0 4.0 0.00 0.00 0.00 81 1016.9
20211209051750 35 279 3.0 6.0 0.00 0.00 0.00 81 1016.8
20211209051250 35 295 2.0 7.0 0.00 0.00 0.00 81 1016.7
20211209050750 35 270 2.0 6.0 0.00 0.00 0.00 82 1016.6
20211209050250 35 317 1.0 4.0 0.00 0.00 0.00 82 1016.5
20211209045750 35 341 1.0 2.0 0.00 0.00 0.00 82 1016.3
20211209045250 35 307 2.0 4.0 0.00 0.00 0.00 82 1016.4
20211209044750 35 300 2.0 4.0 0.00 0.00 0.00 83 1016.5
20211209044250 35 309 1.0 4.0 0.00 0.00 0.00 84 1016.5
20211209043750 35 313 2.0 4.0 0.00 0.00 0.00 84 1016.5
20211209043250 35 315 2.0 4.0 0.00 0.00 0.00 84 1016.5
20211209042750 34 304 2.0 4.0 0.00 0.00 0.00 85 1016.5
20211209042250 34 0 2.0 4.0 0.00 0.00 0.00 86 1016.5
20211209041750 34 0 2.0 3.0 0.00 0.00 0.00 86 1016.3
20211209041250 34 0 2.0 4.0 0.00 0.00 0.00 86 1016.3
20211209040750 34 0 2.0 3.0 0.00 0.00 0.00 87 1016.2
20211209040250 34 0 1.0 3.0 0.00 0.00 0.00 87 1016.1
20211209035750 34 0 1.0 3.0 0.00 0.00 0.00 87 1016.0
20211209035250 33 0 0.0 2.0 0.00 0.00 0.00 86 1016.1
20211209034750 34 0 0.0 1.0 0.00 0.00 0.00 86 1016.0
20211209034250 34 0 0.0 0.0 0.00 0.00 0.00 86 1015.8
20211209033750 34 0 0.0 0.0 0.00 0.00 0.00 85 1015.9
20211209033250 34 0 0.0 0.0 0.00 0.00 0.00 85 1015.9
20211209032750 35 0 0.0 1.0 0.00 0.00 0.00 85 1015.8
20211209032250 35 297 0.0 2.0 0.00 0.00 0.00 86 1015.7
20211209031751 35 298 1.0 1.0 0.00 0.00 0.00 85 1015.6
20211209031251 35 298 1.0 2.0 0.00 0.00 0.00 85 1015.5
20211209030751 35 297 1.0 2.0 0.00 0.00 0.00 85 1015.6
20211209030251 35 287 1.0 2.0 0.00 0.00 0.00 85 1015.2
20211209025751 36 285 2.0 2.0 0.00 0.00 0.00 85 1015.2
20211209025251 36 284 2.0 4.0 0.00 0.00 0.00 85 1015.2
20211209024751 36 287 1.0 4.0 0.00 0.00 0.00 86 1015.1
20211209024251 35 311 1.0 3.0 0.00 0.00 0.00 86 1015.1
20211209023751 35 294 1.0 2.0 0.00 0.00 0.00 86 1015.0
20211209023251 35 286 1.0 2.0 0.00 0.00 0.00 86 1014.9
20211209022751 35 297 1.0 3.0 0.00 0.00 0.00 86 1014.8
20211209022251 35 289 1.0 3.0 0.00 0.00 0.00 86 1014.7
20211209021751 35 290 2.0 3.0 0.00 0.00 0.00 86 1014.7
20211209021251 34 303 2.0 3.0 0.00 0.00 0.00 87 1014.6
20211209020751 34 306 1.0 3.0 0.00 0.00 0.00 87 1014.6
20211209020251 34 309 1.0 3.0 0.00 0.00 0.00 87 1014.5
20211209015751 33 0 0.0 2.0 0.00 0.00 0.00 86 1014.5
20211209015251 33 0 0.0 1.0 0.00 0.00 0.00 86 1014.4
20211209014751 33 0 0.0 0.0 0.00 0.00 0.00 85 1014.4
20211209014251 33 0 0.0 0.0 0.00 0.00 0.00 85 1014.2
20211209013751 33 0 0.0 0.0 0.00 0.00 0.00 84 1014.2
20211209013251 33 0 0.0 1.0 0.00 0.00 0.00 84 1014.2
20211209012751 33 0 0.0 1.0 0.00 0.00 0.00 84 1014.1
20211209012251 33 0 0.0 1.0 0.00 0.00 0.00 84 1014.2
20211209011751 33 0 0.0 1.0 0.00 0.00 0.00 84 1014.0
20211209011251 33 0 0.0 1.0 0.00 0.00 0.00 83 1014.0
20211209010751 34 0 0.0 1.0 0.00 0.00 0.00 83 1013.9
20211209010251 34 0 0.0 0.0 0.00 0.00 0.00 83 1013.7
20211209005751 34 0 0.0 1.0 0.00 0.00 0.00 82 1013.6
20211209005251 34 0 0.0 1.0 0.00 0.00 0.00 82 1013.5
20211209004751 34 0 0.0 0.0 0.00 0.00 0.00 82 1013.5
20211209004251 34 0 0.0 0.0 0.00 0.00 0.00 82 1013.5
20211209003751 34 0 0.0 0.0 0.00 0.00 0.00 81 1013.4
20211209003251 35 0 0.0 0.0 0.00 0.00 0.00 81 1013.4
20211209002754 35 0 0.0 0.0 0.00 0.00 0.00 80 1013.3
20211209002251 35 0 0.0 0.0 0.00 0.00 0.00 80 1013.1
20211209001751 35 0 0.0 1.0 0.00 0.00 0.00 79 1013.0
20211209001251 36 288 0.0 0.0 0.00 0.00 0.00 80 1012.8
20211209000751 36 288 0.0 0.0 0.00 0.00 0.00 79 1013.0
20211209000251 36 288 0.0 0.0 0.00 0.00 0.00 79 1013.1
20211208235751 36 288 0.0 0.0 0.00 0.00 0.00 79 1013.0
20211208235251 36 288 0.0 0.0 0.00 0.00 0.00 79 1013.0
20211208234751 36 288 0.0 2.0 0.00 0.00 0.00 79 1012.9
20211208234251 36 289 0.0 1.0 0.00 0.00 0.00 78 1012.9
20211208233751 36 289 0.0 0.0 0.00 0.00 0.00 78 1012.7
20211208233251 36 289 0.0 1.0 0.00 0.00 0.00 78 1012.8
20211208232751 36 289 0.0 0.0 0.00 0.00 0.00 78 1012.7
20211208232251 36 289 0.0 2.0 0.00 0.00 0.00 79 1012.7
20211208231751 36 289 0.0 2.0 0.00 0.00 0.00 79 1012.7
20211208231251 36 288 0.0 2.0 0.00 0.00 0.00 78 1012.8
20211208230751 36 287 0.0 1.0 0.00 0.00 0.00 77 1012.6
20211208230251 36 287 0.0 2.0 0.00 0.00 0.00 77 1012.6
20211208225751 36 287 0.0 1.0 0.00 0.00 0.00 76 1012.2
20211208225251 36 286 0.0 0.0 0.00 0.00 0.00 75 1012.2
20211208224751 37 286 0.0 0.0 0.00 0.00 0.00 75 1012.2
20211208224251 37 286 0.0 0.0 0.00 0.00 0.00 74 1012.1
20211208223751 37 286 0.0 0.0 0.00 0.00 0.00 73 1012.1
20211208223251 38 286 0.0 1.0 0.00 0.00 0.00 73 1012.0
20211208222751 38 286 0.0 0.0 0.00 0.00 0.00 72 1011.9
20211208222252 38 286 0.0 2.0 0.00 0.00 0.00 71 1011.8
20211208221752 38 286 0.0 1.0 0.00 0.00 0.00 71 1011.7
20211208221252 39 286 0.0 0.0 0.00 0.00 0.00 70 1011.6
20211208220752 39 285 0.0 1.0 0.00 0.00 0.00 69 1011.6
20211208220252 39 285 0.0 1.0 0.00 0.00 0.00 69 1011.7
20211208215752 39 285 1.0 2.0 0.00 0.00 0.00 68 1011.8
20211208215252 39 285 1.0 3.0 0.00 0.00 0.00 68 1011.9
20211208214752 40 280 1.0 3.0 0.00 0.00 0.00 67 1011.8
20211208214252 40 280 1.0 4.0 0.00 0.00 0.00 66 1011.7
20211208213752 40 306 2.0 2.0 0.00 0.00 0.00 65 1011.6
20211208213252 40 304 2.0 4.0 0.00 0.00 0.00 65 1011.6
20211208212752 40 300 2.0 4.0 0.00 0.00 0.00 64 1011.7
20211208212252 40 309 2.0 3.0 0.00 0.00 0.00 64 1011.7
20211208211752 41 312 2.0 5.0 0.00 0.00 0.00 63 1011.8
20211208211252 41 315 2.0 3.0 0.00 0.00 0.00 62 1011.7
20211208210752 41 336 2.0 4.0 0.00 0.00 0.00 61 1011.5
20211208210252 41 355 3.0 5.0 0.00 0.00 0.00 61 1011.3
20211208205752 41 305 3.0 5.0 0.00 0.00 0.00 60 1011.3
20211208205252 41 320 3.0 6.0 0.00 0.00 0.00 59 1011.3
20211208204752 42 11 3.0 5.0 0.00 0.00 0.00 57 1011.2
20211208204252 42 329 3.0 6.0 0.00 0.00 0.00 54 1011.2
20211208203752 42 311 2.0 7.0 0.00 0.00 0.00 53 1011.2
20211208203252 43 286 2.0 4.0 0.00 0.00 0.00 52 1011.3
20211208202752 43 302 2.0 4.0 0.00 0.00 0.00 51 1011.3
20211208202252 43 326 1.0 4.0 0.00 0.00 0.00 50 1011.3
20211208201752 43 57 1.0 3.0 0.00 0.00 0.00 49 1011.3
20211208201252 43 273 2.0 4.0 0.00 0.00 0.00 48 1011.3
20211208200752 43 355 3.0 4.0 0.00 0.00 0.00 48 1011.4
20211208200252 43 317 4.0 8.0 0.00 0.00 0.00 47 1011.4
20211208195752 42 323 3.0 8.0 0.00 0.00 0.00 47 1011.5
20211208195252 42 309 2.0 5.0 0.00 0.00 0.00 48 1011.6
20211208194752 42 355 1.0 3.0 0.00 0.00 0.00 49 1011.4
20211208194252 42 0 1.0 3.0 0.00 0.00 0.00 49 1011.4
20211208193752 42 299 1.0 3.0 0.00 0.00 0.00 49 1011.4
20211208193252 42 325 1.0 2.0 0.00 0.00 0.00 49 1011.5
20211208192752 42 325 1.0 2.0 0.00 0.00 0.00 49 1011.4
20211208192252 42 331 0.0 2.0 0.00 0.00 0.00 50 1011.4
20211208191752 42 331 0.0 2.0 0.00 0.00 0.00 51 1011.7
20211208191252 42 329 0.0 1.0 0.00 0.00 0.00 51 1011.7
20211208190752 42 329 0.0 2.0 0.00 0.00 0.00 49 1011.7
20211208190252 42 329 1.0 1.0 0.00 0.00 0.00 49 1011.7
20211208185752 42 329 1.0 2.0 0.00 0.00 0.00 50 1011.7
20211208185252 42 329 1.0 1.0 0.00 0.00 0.00 51 1011.9
20211208184752 42 329 1.0 3.0 0.00 0.00 0.00 51 1012.2
20211208184252 42 327 1.0 3.0 0.00 0.00 0.00 51 1012.3
20211208183752 42 23 1.0 2.0 0.00 0.00 0.00 51 1012.4
20211208183252 42 24 1.0 4.0 0.00 0.00 0.00 52 1012.3
20211208182752 41 46 1.0 1.0 0.00 0.00 0.00 53 1012.5
20211208182252 41 59 1.0 3.0 0.00 0.00 0.00 54 1012.8
20211208181752 41 61 1.0 3.0 0.00 0.00 0.00 54 1012.9
20211208181252 41 64 2.0 4.0 0.00 0.00 0.00 54 1013.0
20211208180752 41 64 1.0 3.0 0.00 0.00 0.00 56 1013.2
20211208180252 41 38 2.0 4.0 0.00 0.00 0.00 56 1013.2
20211208175752 41 38 2.0 5.0 0.00 0.00 0.00 57 1013.2
20211208175252 41 61 1.0 3.0 0.00 0.00 0.00 58 1013.5
20211208174752 41 55 1.0 2.0 0.00 0.00 0.00 59 1013.4
20211208174252 41 60 1.0 4.0 0.00 0.00 0.00 58 1013.6
20211208173752 41 30 1.0 3.0 0.00 0.00 0.00 59 1013.8
20211208173252 41 76 1.0 2.0 0.00 0.00 0.00 59 1013.9
20211208172752 41 75 1.0 5.0 0.00 0.00 0.00 58 1014.1
20211208172252 41 69 2.0 4.0 0.00 0.00 0.00 58 1014.1
20211208171753 41 67 2.0 4.0 0.00 0.00 0.00 58 1014.1
20211208171253 41 65 2.0 4.0 0.00 0.00 0.00 59 1014.1
20211208170753 41 80 3.0 4.0 0.00 0.00 0.00 59 1014.2
20211208170253 41 67 2.0 7.0 0.00 0.00 0.00 59 1014.3
20211208165753 41 71 2.0 4.0 0.00 0.00 0.00 60 1014.4
20211208165253 41 74 2.0 3.0 0.00 0.00 0.00 61 1014.6
20211208164753 41 53 3.0 5.0 0.00 0.00 0.00 61 1014.7
20211208164253 41 90 2.0 5.0 0.00 0.00 0.00 61 1014.9
20211208163753 41 77 2.0 4.0 0.00 0.00 0.00 61 1015.1
20211208163253 41 336 2.0 4.0 0.00 0.00 0.00 61 1015.1
20211208162753 41 69 1.0 3.0 0.00 0.00 0.00 62 1015.4
20211208162253 41 72 1.0 3.0 0.00 0.00 0.00 62 1015.3
20211208161753 41 84 2.0 5.0 0.00 0.00 0.00 63 1015.5
20211208161253 41 85 3.0 5.0 0.00 0.00 0.00 62 1015.4
20211208160753 41 84 3.0 4.0 0.00 0.00 0.00 64 1015.4
20211208160253 41 71 2.0 6.0 0.00 0.00 0.00 64 1015.5
20211208155753 41 69 1.0 4.0 0.00 0.00 0.00 67 1015.6
20211208155253 40 50 1.0 4.0 0.00 0.00 0.00 67 1015.9
20211208154753 40 45 1.0 3.0 0.00 0.00 0.00 68 1016.0
20211208154253 40 74 2.0 4.0 0.00 0.00 0.00 69 1016.2
20211208153753 40 88 2.0 4.0 0.00 0.00 0.00 70 1016.2
20211208153253 40 59 1.0 3.0 0.00 0.00 0.00 71 1016.3
20211208152753 40 53 1.0 3.0 0.00 0.00 0.00 73 1016.3
20211208152253 40 71 1.0 2.0 0.00 0.00 0.00 74 1016.5
20211208151753 39 98 1.0 3.0 0.00 0.00 0.00 74 1016.5
20211208151253 39 85 1.0 3.0 0.00 0.00 0.00 74 1016.6
20211208150753 39 63 1.0 3.0 0.00 0.00 0.00 75 1016.8
20211208145453 39 110 0.0 3.0 0.00 0.00 0.00 78 1016.7
20211208144953 39 99 0.0 0.0 0.00 0.00 0.00 79 1016.9
20211208144453 39 103 0.0 0.0 0.00 0.00 0.00 80 1017.0
20211208143953 38 101 0.0 1.0 0.00 0.00 0.00 80 1017.1
20211208143453 38 103 0.0 1.0 0.00 0.00 0.00 79 1017.4
20211208142953 38 103 0.0 1.0 0.00 0.00 0.00 79 1017.5
20211208142453 38 101 0.0 1.0 0.00 0.00 0.00 79 1017.6
20211208141953 38 98 0.0 0.0 0.00 0.00 0.00 80 1017.8
20211208141453 38 92 0.0 0.0 0.00 0.00 0.00 80 1017.7
20211208140953 37 88 0.0 1.0 0.00 0.00 0.00 81 1017.8
20211208140453 37 86 0.0 1.0 0.00 0.00 0.00 81 1017.8
20211208135953 37 86 0.0 0.0 0.00 0.00 0.00 82 1017.8
20211208135453 37 84 0.0 0.0 0.00 0.00 0.00 83 1017.5
20211208134953 37 82 0.0 0.0 0.00 0.00 0.00 83 1017.6
20211208134453 37 81 0.0 0.0 0.00 0.00 0.00 84 1017.7
20211208133953 37 80 0.0 1.0 0.00 0.00 0.00 84 1017.6
20211208133453 37 79 0.0 0.0 0.00 0.00 0.00 84 1017.6
20211208132953 36 79 1.0 2.0 0.00 0.00 0.00 84 1017.7
20211208132453 36 78 1.0 2.0 0.00 0.00 0.00 85 1017.9
20211208131953 36 78 0.0 1.0 0.00 0.00 0.00 84 1018.0
20211208131453 36 78 0.0 1.0 0.00 0.00 0.00 84 1017.9
20211208130953 36 78 0.0 0.0 0.00 0.00 0.00 84 1017.6
20211208130453 36 77 0.0 0.0 0.00 0.00 0.00 83 1017.6
20211208125953 36 77 0.0 0.0 0.00 0.00 0.00 83 1017.6
20211208125453 36 76 0.0 0.0 0.00 0.00 0.00 82 1017.8
20211208124953 35 76 0.0 0.0 0.00 0.00 0.00 82 1017.8
20211208124453 35 76 0.0 0.0 0.00 0.00 0.00 82 1018.0
20211208123953 35 76 0.0 0.0 0.00 0.00 0.00 81 1018.0
20211208123453 35 76 0.0 0.0 0.00 0.00 0.00 81 1018.1
20211208122953 35 76 0.0 0.0 0.00 0.00 0.00 81 1018.2
20211208122453 35 76 0.0 0.0 0.00 0.00 0.00 81 1018.4
20211208121953 35 76 0.0 0.0 0.00 0.00 0.00 81 1018.6
20211208121453 35 76 0.0 0.0 0.00 0.00 0.00 81 1018.4
20211208120954 35 76 0.0 0.0 0.00 0.00 0.00 82 1018.1
20211208120454 35 77 0.0 0.0 0.00 0.00 0.00 82 1018.3
20211208115954 35 76 0.0 0.0 0.00 0.00 0.00 82 1018.5
20211208115454 35 76 0.0 0.0 0.00 0.00 0.00 82 1018.5
20211208114954 35 76 0.0 1.0 0.00 0.00 0.00 83 1018.5
20211208114454 35 76 0.0 2.0 0.00 0.00 0.00 84 1018.4
20211208113954 34 76 0.0 0.0 0.00 0.00 0.00 84 1018.2
20211208113454 34 76 0.0 1.0 0.00 0.00 0.00 84 1017.9
20211208112954 34 76 0.0 0.0 0.00 0.00 0.00 84 1017.9
20211208112454 34 76 0.0 0.0 0.00 0.00 0.00 84 1018.0
20211208111954 34 76 1.0 1.0 0.00 0.00 0.00 85 1018.0
20211208111454 33 76 0.0 2.0 0.00 0.00 0.00 85 1018.2
20211208110954 33 152 0.0 1.0 0.00 0.00 0.00 85 1018.0
20211208110454 33 152 0.0 0.0 0.00 0.00 0.00 85 1017.8
20211208105954 33 152 0.0 0.0 0.00 0.00 0.00 85 1018.2
20211208105454 33 152 0.0 0.0 0.00 0.00 0.00 85 1018.4
20211208104954 33 152 0.0 0.0 0.00 0.00 0.00 85 1018.6
20211208104454 33 152 0.0 0.0 0.00 0.00 0.00 85 1018.5
20211208103954 32 152 0.0 1.0 0.00 0.00 0.00 85 1018.5
20211208103454 32 152 0.0 1.0 0.00 0.00 0.00 85 1018.5
20211208102954 32 152 0.0 0.0 0.00 0.00 0.00 85 1018.4
20211208102454 32 152 0.0 0.0 0.00 0.00 0.00 85 1018.2
20211208101954 32 152 0.0 0.0 0.00 0.00 0.00 85 1018.2
20211208101454 32 152 0.0 0.0 0.00 0.00 0.00 85 1018.3
20211208100954 32 153 0.0 0.0 0.00 0.00 0.00 86 1018.3
20211208100454 31 152 0.0 0.0 0.00 0.00 0.00 85 1018.4
20211208095954 31 153 0.0 0.0 0.00 0.00 0.00 85 1018.3
20211208095454 31 153 0.0 0.0 0.00 0.00 0.00 85 1018.2
20211208094954 31 153 0.0 0.0 0.00 0.00 0.00 85 1018.2
20211208094454 31 153 0.0 0.0 0.00 0.00 0.00 85 1018.2
20211208093954 31 153 0.0 0.0 0.00 0.00 0.00 85 1018.2
20211208093454 31 153 0.0 0.0 0.00 0.00 0.00 85 1018.4
20211208092954 31 153 0.0 0.0 0.00 0.00 0.00 85 1018.5
20211208092454 31 153 0.0 0.0 0.00 0.00 0.00 85 1018.6
20211208091954 31 153 0.0 0.0 0.00 0.00 0.00 85 1018.7
20211208091454 31 153 0.0 0.0 0.00 0.00 0.00 85 1018.7
20211208090954 31 153 0.0 0.0 0.00 0.00 0.00 85 1018.8
20211208090454 31 153 0.0 0.0 0.00 0.00 0.00 85 1018.8
20211208085954 30 153 0.0 0.0 0.00 0.00 0.00 85 1018.9
20211208085454 30 153 0.0 0.0 0.00 0.00 0.00 85 1019.0
20211208084954 30 153 0.0 0.0 0.00 0.00 0.00 85 1019.0
20211208084454 30 153 0.0 0.0 0.00 0.00 0.00 85 1018.9
20211208083954 30 153 0.0 0.0 0.00 0.00 0.00 85 1019.1
20211208083454 30 153 0.0 0.0 0.00 0.00 0.00 85 1019.4
20211208082954 30 154 0.0 1.0 0.00 0.00 0.00 85 1019.6
20211208082454 30 154 0.0 2.0 0.00 0.00 0.00 85 1019.7
20211208081954 30 154 0.0 2.0 0.00 0.00 0.00 85 1019.8
20211208081454 30 333 0.0 0.0 0.00 0.00 0.00 85 1020.0
20211208080954 30 333 0.0 0.0 0.00 0.00 0.00 85 1020.0
20211208080454 29 333 0.0 0.0 0.00 0.00 0.00 85 1020.0
20211208075954 29 333 0.0 1.0 0.00 0.00 0.00 85 1020.0
20211208075454 29 333 0.0 0.0 0.00 0.00 0.00 85 1019.8
20211208074954 29 333 0.0 0.0 0.00 0.00 0.00 85 1019.9
20211208074454 29 333 0.0 1.0 0.00 0.00 0.00 85 1020.0
20211208073954 29 333 0.0 1.0 0.00 0.00 0.00 85 1020.0
20211208073454 28 333 0.0 1.0 0.00 0.00 0.00 85 1020.0
20211208072954 28 333 0.0 0.0 0.00 0.00 0.00 85 1019.8
20211208072454 28 333 0.0 0.0 0.00 0.00 0.00 84 1019.8
20211208071954 28 333 0.0 0.0 0.00 0.00 0.00 85 1019.7
20211208071455 28 333 0.0 1.0 0.00 0.00 0.00 85 1019.5
20211208070955 28 333 0.0 0.0 0.00 0.00 0.00 84 1019.6
20211208070455 28 333 0.0 1.0 0.00 0.00 0.00 84 1019.4
20211208065955 28 333 0.0 1.0 0.00 0.00 0.00 84 1019.8
20211208065455 28 333 0.0 1.0 0.00 0.00 0.00 85 1020.0
20211208064955 27 333 0.0 0.0 0.00 0.00 0.00 85 1019.9
20211208064455 27 333 0.0 0.0 0.00 0.00 0.00 85 1019.8
20211208063955 27 0 0.0 1.0 0.00 0.00 0.00 85 1019.6
20211208063455 27 0 0.0 1.0 0.00 0.00 0.00 85 1019.7
20211208062955 27 0 0.0 0.0 0.00 0.00 0.00 84 1019.5
20211208062455 27 0 0.0 0.0 0.00 0.00 0.00 85 1019.6
20211208061955 27 0 0.0 0.0 0.00 0.00 0.00 85 1019.6
20211208061455 27 0 0.0 0.0 0.00 0.00 0.00 84 1019.6
20211208060955 27 0 0.0 0.0 0.00 0.00 0.00 85 1019.8
20211208060455 27 0 0.0 0.0 0.00 0.00 0.00 85 1019.9
20211208055955 27 0 0.0 0.0 0.00 0.00 0.00 85 1020.0
20211208055455 27 0 1.0 2.0 0.00 0.00 0.00 85 1020.1
20211208054955 27 0 0.0 2.0 0.00 0.00 0.00 85 1020.4
20211208054455 27 0 0.0 0.0 0.00 0.00 0.00 85 1020.2
20211208053955 27 0 1.0 1.0 0.00 0.00 0.00 85 1020.4
20211208053455 27 0 1.0 2.0 0.00 0.00 0.00 85 1020.8